This demonstration page uses our WeatherBlox Daily Observations layout. Learn more.

Left ArrowRight Arrow

Hourly Observations for February 7, 2015

Temp ( °F °C ) Dew Point ( °F °C ) Humidity (%) Winds ( mph kmh ) Pressure ( in mb ) Visibility ( mi km ) Precip ( " mm )
12:51 am 00:51 Clear 46 7.8 39 3.9 77 77 N N/A 30.10 1019 10 16 N/A
1:51 am 01:51 Clear 47 8.3 39 3.9 74 74 N N/A 30.09 1019 10 16 N/A
2:51 am 02:51 Clear 47 8.3 38 3.3 71 71 S 3 6 30.08 1019 10 16 N/A
3:51 am 03:51 Clear 43 6.1 38 3.3 82 82 ENE 5 7 30.08 1019 10 16 N/A
4:51 am 04:51 Clear 43 6.1 37 2.8 80 80 ESE 5 7 30.08 1019 10 16 N/A
5:51 am 05:51 Clear 41 5 36 2.2 82 82 SE 3 6 30.09 1019 10 16 N/A
6:51 am 06:51 Clear 41 5 36 2.2 82 82 E 5 7 30.11 1020 10 16 N/A
7:51 am 07:51 Sunny 42 5.6 37 2.8 82 82 ESE 3 6 30.14 1021 10 16 N/A
8:51 am 08:51 Sunny 49 9.4 37 2.8 64 64 N N/A 30.15 1021 10 16 N/A
9:51 am 09:51 Sunny 55 12.8 36 2.2 49 49 SE 5 7 30.15 1021 10 16 N/A
10:51 am 10:51 Sunny 61 16.1 35 1.7 38 38 N N/A 30.13 1020 10 16 N/A
11:51 am 11:51 Sunny 65 18.3 35 1.7 33 33 WNW 8 13 30.11 1020 10 16 N/A
12:51 pm 12:51 Sunny 68 20 35 1.7 30 30 WNW 7 11 30.07 1018 10 16 N/A
1:51 pm 13:51 Sunny 73 22.8 34 1.1 24 24 WNW 9 15 30.01 1016 10 16 N/A
2:51 pm 14:51 Sunny 74 23.3 30 -1.1 20 20 WNW 10 17 29.98 1015 10 16 N/A
3:51 pm 15:51 Sunny 76 24.4 22 -5.6 13 13 WNW 13 20 29.97 1015 10 16 N/A
4:51 pm 16:51 Sunny 75 23.9 21 -6.1 13 13 NW 14 22 29.97 1015 10 16 N/A
5:51 pm 17:51 Sunny 69 20.6 25 -3.9 19 19 WNW 8 13 29.99 1016 10 16 N/A
6:51 pm 18:51 Clear 61 16.1 30 -1.1 31 31 NW 7 11 30.02 1017 10 16 N/A
7:51 pm 19:51 Clear 60 15.6 28 -2.2 30 30 NW 12 19 30.04 1017 10 16 N/A
8:51 pm 20:51 Clear 60 15.6 28 -2.2 30 30 NW 9 15 30.04 1017 10 16 N/A
9:51 pm 21:51 Clear 58 14.4 30 -1.1 35 35 NW 8 13 30.05 1018 10 16 N/A
10:51 pm 22:51 Clear 57 13.9 32 undefined 39 39 NNW 9 15 30.04 1017 10 16 N/A
11:51 pm 23:51 Clear 54 12.2 34 1.1 47 47 W 5 7 30.05 1018 10 16 N/A

Powered by AerisWeather